Lid_Strength_Index
3 4 4 5 5 5 4 2 1 2 2 2 2 2 1 2 2 2 2 3 3 3
3 4 4 5 6 5 4 2 1 3 4 4 3 3 3 3 3 3 3 3 3 3
4 3 4 4 5 4 4 4 4 4 4 5 5 4 4 4 4 4 5 5 5 6
4 4 4 4 4 5 4 4 4 4 4 3 3 3 3 4 4 4 4 4 4 5
4 5 5 5 5 4 4 4 4 4 4 3 3 4 4 4 4 4 4 4 4 4
5 6 6 6 5 4 5 5 4 4 4 4 4 5 5 5 4 4 4 4 3 4
4 5 5 4 4 4 4 4 4 5 4 4 4 4 5 6 7 7 7 7 6 5
4 5 5 4 5 5 5 5 4 4 4 4 4 4 6 7 8 8 8 8 7 7
4 5 4 5 5 5 5 6 5 5 4 5 4 7 7 8 9 10 10 10 10 8
3 4 5 5 5 6 7 7 7 7 6 6 6 8 8 8 11 12 12 12 12 11
3 5 5 5 6 7 8 8 8 8 7 7 6 8 9 9 11 12 12 12 13 13
3 5 5 5 6 7 7 8 8 8 8 7 7 8 9 9 10 11 11 10 10 12
2 4 5 5 6 6 7 7 7 8 8 8 7 9 9 8 8 9 9 8 8 8
2 3 4 5 5 5 6 7 7 8 8 8 8 8 10 9 7 7 8 8 9 8